GW4718 Weather Reports


Display with metric or nautical units.
time (UTC)temp
F
wind
direction
speed
MPH
gust
MPH
rain 1hr
in
rain 24hr
in
rain mn
in
humidity
%
barometer
mb
20260906024827 68 148 0.0 0.0 0.00 0.52 0.52 99 1018.2
20260906024326 68 148 0.0 0.0 0.00 0.52 0.52 99 1018.2
20260906023823 68 187 0.0 0.0 0.00 0.52 0.52 99 1018.2
20260906023318 68 224 0.0 0.0 0.00 0.52 0.52 99 1018.0
20260906022813 68 224 0.0 0.0 0.00 0.52 0.52 99 1017.8
20260906022308 68 208 0.0 0.0 0.00 0.52 0.52 99 1017.9
20260906021804 68 200 0.0 0.0 0.00 0.52 0.52 99 1018.1
20260906021303 68 139 0.0 0.0 0.00 0.52 0.52 99 1017.9
20260906020758 68 98 0.0 0.0 0.00 0.52 0.52 99 1017.9
20260906020253 68 65 0.0 0.0 0.00 0.52 0.52 99 1017.8
20260906015752 68 47 0.0 0.0 0.00 0.52 0.52 99 1017.7
20260906015250 68 329 0.0 0.0 0.00 0.52 0.52 99 1017.6
20260906014745 69 63 0.0 0.0 0.00 0.52 0.52 99 1017.4
20260906014241 68 273 0.0 0.0 0.00 0.52 0.52 99 1017.5
20260906013738 69 260 0.0 0.0 0.07 0.52 0.52 99 1017.3
20260906013237 69 193 0.0 2.0 0.07 0.52 0.52 99 1017.0
20260906012732 69 243 0.0 0.0 0.12 0.51 0.51 99 1017.0
20260906012228 69 141 0.0 0.0 0.12 0.51 0.51 99 1017.0
20260906011723 69 48 0.0 0.0 0.00 0.49 0.49 99 1017.3
20260906011222 69 222 0.0 0.0 0.00 0.49 0.49 99 1017.2
20260906010719 69 222 0.0 0.0 0.00 0.49 0.49 99 1017.1
20260906010215 69 190 0.0 0.0 0.00 0.49 0.49 99 1017.0
20260906005715 69 214 0.0 0.0 0.00 0.49 0.49 99 1016.7
20260906005214 69 217 0.0 0.0 0.00 0.49 0.49 99 1017.0
20260906004713 69 121 0.0 0.0 0.00 0.49 0.49 99 1016.7
20260906004208 69 114 0.0 0.0 0.00 0.49 0.49 99 1016.9
20260906003703 69 117 0.0 0.0 0.00 0.49 0.49 99 1016.8
20260906003159 69 117 0.0 0.0 0.00 0.49 0.49 99 1016.8
20260906002659 69 108 0.0 0.0 0.00 0.49 0.49 99 1016.8
20260906002154 69 107 0.0 0.0 0.00 0.49 0.49 99 1016.8
20260906001649 69 106 0.0 0.0 0.00 0.49 0.49 99 1016.5
20260906001143 69 130 0.0 0.0 0.00 0.49 0.49 99 1016.8
20260906000639 69 136 0.0 0.0 0.00 0.49 0.49 99 1016.9
20260906000134 69 137 0.0 0.0 0.00 0.49 0.49 99 1016.3
20260905235633 69 136 0.0 0.0 0.00 0.49 0.49 99 1016.5
20260905235128 69 131 0.0 0.0 0.00 0.49 0.49 99 1016.7
20260905234624 69 132 0.0 0.0 0.00 0.49 0.49 99 1016.7
20260905234119 69 179 0.0 1.0 0.00 0.49 0.49 99 1016.7
20260905233614 69 160 0.0 0.0 0.00 0.49 0.49 99 1016.7
20260905233113 69 115 1.0 2.0 0.00 0.49 0.49 99 1016.4
20260905232609 69 99 0.0 1.0 0.00 0.49 0.49 99 1016.8
20260905232105 69 66 0.0 0.0 0.00 0.49 0.49 99 1016.8
20260905231559 69 11 0.0 0.0 0.00 0.49 0.49 99 1016.9
20260905231056 69 19 0.0 2.0 0.24 0.49 0.49 99 1016.8
20260905230556 70 119 1.0 3.0 0.66 0.48 0.48 98 1016.7
20260905230054 71 132 1.0 3.0 0.61 0.44 0.44 96 1016.8
20260905225549 71 8 1.0 3.0 0.31 0.37 0.37 92 1016.7
20260905225044 72 336 0.0 1.0 0.19 0.33 0.33 92 1016.5
20260905224543 73 81 4.0 4.0 0.07 0.31 0.31 89 1016.5
20260905224043 75 41 0.0 0.0 0.00 0.30 0.30 83 1016.2
20260905223541 76 76 0.0 0.0 0.00 0.30 0.30 83 1016.1
20260905223037 76 74 0.0 0.0 0.00 0.30 0.30 79 1016.1
20260905222536 77 122 0.0 1.0 0.00 0.30 0.30 79 1016.2
20260905222032 77 52 0.0 2.0 0.00 0.30 0.30 76 1016.0
20260905221528 78 66 0.0 0.0 0.00 0.30 0.30 77 1016.1
20260905221024 79 102 0.0 1.0 0.00 0.30 0.30 75 1015.9
20260905220519 80 126 0.0 1.0 0.00 0.30 0.30 68 1016.0
20260905220015 80 230 0.0 1.0 0.00 0.30 0.30 68 1015.9
20260905215509 80 271 0.0 1.0 0.00 0.30 0.30 67 1015.8
20260905215006 79 333 2.0 2.0 0.00 0.30 0.30 69 1015.9
20260905214501 80 175 1.0 2.0 0.00 0.30 0.30 66 1015.8
20260905214001 80 309 1.0 2.0 0.00 0.30 0.30 66 1015.7
20260905213457 79 226 1.0 4.0 0.00 0.30 0.30 70 1015.9
20260905212953 80 243 1.0 3.0 0.00 0.30 0.30 70 1015.8
20260905212452 80 217 2.0 2.0 0.00 0.30 0.30 70 1015.8
20260905211952 82 195 1.0 7.0 0.00 0.30 0.30 69 1015.8
20260905211447 83 243 4.0 6.0 0.00 0.30 0.30 64 1015.5
20260905210943 82 120 0.0 1.0 0.00 0.30 0.30 66 1015.7
20260905210438 82 257 3.0 3.0 0.00 0.30 0.30 66 1015.4
20260905205938 82 162 0.0 1.0 0.00 0.30 0.30 64 1015.5
20260905205432 82 174 2.0 3.0 0.00 0.30 0.30 62 1015.6
20260905204931 81 37 0.0 2.0 0.00 0.30 0.30 66 1015.6
20260905204427 80 58 0.0 3.0 0.00 0.30 0.30 67 1015.5
20260905203926 80 84 5.0 7.0 0.00 0.30 0.30 65 1015.7
20260905203422 81 13 1.0 2.0 0.00 0.30 0.30 65 1015.7
20260905202917 80 101 8.0 13.0 0.00 0.30 0.30 65 1015.7
20260905202413 81 335 0.0 3.0 0.00 0.30 0.30 64 1015.6
20260905201908 82 198 0.0 2.0 0.00 0.30 0.30 65 1015.8
20260905201403 83 149 2.0 2.0 0.00 0.30 0.30 66 1015.7
20260905200903 81 237 4.0 4.0 0.00 0.30 0.30 68 1015.7
20260905200359 81 225 0.0 2.0 0.00 0.30 0.30 66 1015.6
20260905195857 81 77 2.0 4.0 0.00 0.30 0.30 68 1015.7
20260905195352 82 50 2.0 3.0 0.00 0.30 0.30 68 1015.7
20260905194848 82 335 4.0 7.0 0.00 0.30 0.30 69 1015.9
20260905194347 83 191 0.0 4.0 0.00 0.30 0.30 66 1015.7
20260905193842 82 257 2.0 6.0 0.00 0.30 0.30 63 1015.7
20260905193337 82 191 3.0 4.0 0.00 0.30 0.30 61 1015.9
20260905192832 82 249 2.0 4.0 0.00 0.30 0.30 66 1015.7
20260905192328 83 95 2.0 2.0 0.00 0.30 0.30 68 1016.0
20260905191827 82 278 1.0 4.0 0.00 0.30 0.30 67 1016.0
20260905191326 82 220 2.0 3.0 0.00 0.30 0.30 65 1016.1
20260905190824 81 14 1.0 3.0 0.00 0.30 0.30 66 1016.3
20260905190319 80 354 4.0 7.0 0.00 0.30 0.30 67 1016.3
20260905185818 80 16 0.0 4.0 0.00 0.30 0.30 70 1016.1
20260905185313 80 9 2.0 4.0 0.00 0.30 0.30 72 1016.0
20260905184807 79 3 1.0 7.0 0.00 0.30 0.30 74 1016.3
20260905184306 79 25 1.0 2.0 0.00 0.30 0.30 75 1016.5
20260905183804 77 49 3.0 4.0 0.00 0.30 0.30 76 1016.7
20260905183300 77 59 3.0 6.0 0.00 0.30 0.30 76 1016.7
20260905182759 76 314 0.0 6.0 0.00 0.30 0.30 75 1017.0
20260905182259 77 38 4.0 4.0 0.00 0.30 0.30 78 1016.9
20260905181754 78 144 2.0 3.0 0.00 0.30 0.30 74 1017.0
20260905181248 78 240 7.0 8.0 0.00 0.30 0.30 72 1017.1
20260905180743 78 141 2.0 4.0 0.00 0.30 0.30 68 1017.2
20260905180238 79 297 2.0 3.0 0.00 0.30 0.30 70 1017.2
20260905175732 80 11 0.0 2.0 0.00 0.30 0.30 71 1017.1
20260905175227 79 330 1.0 7.0 0.00 0.30 0.30 69 1017.0
20260905174722 79 22 2.0 6.0 0.00 0.30 0.30 70 1016.9
20260905174218 79 16 1.0 4.0 0.00 0.30 0.30 71 1016.7
20260905173714 78 27 4.0 7.0 0.00 0.30 0.30 73 1016.8
20260905173209 78 67 15.0 16.0 0.00 0.30 0.30 74 1017.0
20260905172708 78 25 0.0 2.0 0.00 0.30 0.30 76 1016.8
20260905172202 77 2 1.0 2.0 0.00 0.30 0.30 78 1016.8
20260905171658 77 107 1.0 3.0 0.00 0.30 0.30 76 1016.8
20260905171154 76 130 0.0 0.0 0.00 0.30 0.30 80 1016.7
20260905170652 75 62 3.0 3.0 0.00 0.30 0.30 85 1017.0
20260905170146 75 52 2.0 3.0 0.00 0.30 0.30 89 1016.8
20260905165646 75 66 1.0 2.0 0.00 0.30 0.30 88 1016.9
20260905165141 74 23 1.0 4.0 0.00 0.30 0.30 84 1017.2
20260905164636 73 25 2.0 9.0 0.00 0.30 0.30 91 1017.1
20260905164135 73 297 1.0 1.0 0.00 0.30 0.30 92 1017.4
20260905163632 73 42 2.0 3.0 0.00 0.30 0.30 93 1017.3
20260905163128 72 21 0.0 1.0 0.00 0.30 0.30 93 1017.3
20260905162624 72 13 0.0 0.0 0.00 0.30 0.30 95 1017.2
20260905162123 71 14 0.0 0.0 0.00 0.30 0.30 96 1017.1
20260905161618 71 273 3.0 4.0 0.00 0.30 0.30 96 1017.4
20260905161116 71 271 2.0 3.0 0.00 0.30 0.30 96 1017.1
20260905160615 71 211 2.0 6.0 0.00 0.30 0.30 97 1017.1
20260905160114 70 223 2.0 2.0 0.00 0.30 0.30 99 1017.0
20260905155610 70 263 2.0 3.0 0.00 0.30 0.30 99 1017.0
20260905155108 70 233 2.0 3.0 0.00 0.30 0.30 99 1017.1
20260905154602 70 228 0.0 2.0 0.00 0.30 0.30 99 1017.2
20260905154058 69 275 0.0 1.0 0.00 0.30 0.30 98 1017.5
20260905153554 69 216 1.0 2.0 0.05 0.30 0.30 99 1017.8
20260905153054 69 259 1.0 2.0 0.05 0.30 0.30 99 1017.8
20260905152549 68 203 2.0 3.0 0.00 0.29 0.29 99 1018.1
20260905152044 68 256 1.0 3.0 0.00 0.29 0.29 99 1018.3
20260905151539 68 267 0.0 0.0 0.00 0.29 0.29 99 1018.5
20260905151035 68 139 1.0 2.0 0.00 0.29 0.29 99 1018.3
20260905150530 68 255 0.0 2.0 0.07 0.29 0.29 99 1018.7
20260905150027 68 282 0.0 2.0 0.07 0.29 0.29 99 1018.5
20260905145521 68 239 0.0 0.0 0.00 0.28 0.28 99 1018.6
20260905145020 67 177 0.0 0.0 0.07 0.28 0.28 99 1018.8
20260905144515 67 150 0.0 0.0 0.12 0.28 0.28 99 1018.9
20260905144014 68 197 0.0 0.0 0.12 0.27 0.27 99 1018.8
20260905143513 69 244 0.0 1.0 0.12 0.26 0.26 98 1019.1
20260905143009 69 78 3.0 4.0 0.12 0.25 0.25 93 1018.8
20260905142507 68 173 1.0 6.0 0.19 0.24 0.24 93 1018.9
20260905142003 69 217 0.0 7.0 0.17 0.23 0.23 94 1019.4
20260905141457 70 198 4.0 6.0 0.12 0.21 0.21 91 1019.5
20260905140954 70 138 4.0 7.0 0.19 0.20 0.20 90 1019.6
20260905140448 71 241 3.0 14.0 0.17 0.19 0.19 88 1019.7
20260905135947 70 221 5.0 7.0 0.19 0.17 0.17 90 1019.8
20260905135443 70 125 2.0 7.0 0.26 0.16 0.16 94 1019.7
20260905134938 70 199 4.0 9.0 0.17 0.14 0.14 94 1019.3
20260905134438 70 104 2.0 6.0 0.17 0.12 0.12 95 1019.2
20260905133937 70 255 0.0 3.0 0.19 0.11 0.11 97 1019.4
20260905133432 72 222 0.0 3.0 0.24 0.09 0.09 93 1019.1
20260905132931 72 206 6.0 13.0 0.42 0.08 0.08 91 1018.9
20260905132426 70 161 4.0 11.0 0.26 0.05 0.05 95 1018.7
20260905131921 70 188 2.0 3.0 0.00 0.01 0.01 99 1018.3
20260905131417 70 301 0.0 3.0 0.00 0.01 0.01 98 1018.0
20260905130912 70 176 0.0 1.0 0.00 0.01 0.01 99 1017.6
20260905130412 70 78 2.0 3.0 0.00 0.01 0.01 99 1017.3
20260905125906 70 65 0.0 0.0 0.00 0.01 0.01 99 1017.5
20260905125401 70 108 2.0 3.0 0.00 0.01 0.01 99 1017.2
20260905124857 71 321 2.0 2.0 0.00 0.01 0.01 98 1017.0
20260905124353 70 85 3.0 3.0 0.00 0.01 0.01 99 1016.9
20260905123853 70 312 0.0 1.0 0.00 0.01 0.01 99 1016.9
20260905123350 70 213 1.0 2.0 0.00 0.01 0.01 99 1016.8
20260905122850 70 57 1.0 6.0 0.00 0.01 0.01 99 1016.9
20260905122344 70 43 4.0 6.0 0.00 0.01 0.01 99 1016.9
20260905121839 69 7 0.0 0.0 0.00 0.01 0.01 99 1017.1
20260905121336 69 243 0.0 1.0 0.00 0.01 0.01 99 1017.0
20260905120834 69 71 0.0 0.0 0.00 0.01 0.01 99 1016.9
20260905120329 69 279 0.0 3.0 0.00 0.01 0.01 99 1017.0
20260905115824 68 48 0.0 0.0 0.00 0.01 0.01 99 1017.1
20260905115324 68 50 0.0 3.0 0.00 0.01 0.01 99 1017.0
20260905114823 68 306 1.0 1.0 0.00 0.01 0.01 99 1017.0
20260905114322 68 102 1.0 2.0 0.00 0.01 0.01 99 1017.0
20260905113821 67 310 0.0 0.0 0.00 0.01 0.01 99 1016.8
20260905113317 67 116 0.0 2.0 0.00 0.01 0.01 99 1016.8
20260905112813 67 151 0.0 0.0 0.05 0.01 0.01 99 1016.9
20260905112307 67 18 0.0 0.0 0.05 0.01 0.01 99 1017.0
20260905111802 67 302 0.0 0.0 0.00 0.00 0.00 99 1016.8
20260905111257 66 70 0.0 0.0 0.00 0.00 0.00 99 1016.7
20260905110756 66 28 0.0 0.0 0.00 0.00 0.00 99 1016.7
20260905110250 65 76 0.0 0.0 0.00 0.00 0.00 99 1016.7
20260905105746 65 72 0.0 0.0 0.00 0.00 0.00 99 1016.7
20260905105245 64 93 0.0 0.0 0.00 0.00 0.00 99 1016.7
20260905104739 65 326 0.0 0.0 0.00 0.00 0.00 99 1016.8
20260905104236 64 60 0.0 0.0 0.00 0.00 0.00 99 1016.7
20260905103730 64 245 0.0 0.0 0.00 0.00 0.00 99 1016.7
20260905103226 64 301 0.0 0.0 0.00 0.00 0.00 99 1017.0
20260905102721 64 88 0.0 0.0 0.00 0.00 0.00 99 1017.0
20260905102218 64 110 0.0 0.0 0.00 0.00 0.00 99 1017.2
20260905101717 64 92 0.0 0.0 0.00 0.00 0.00 99 1017.2
20260905101215 64 95 0.0 2.0 0.00 0.00 0.00 99 1017.3
20260905100712 64 264 0.0 0.0 0.00 0.00 0.00 99 1017.2
20260905100207 64 17 0.0 0.0 0.00 0.00 0.00 99 1017.1
20260905095706 64 333 0.0 0.0 0.00 0.00 0.00 99 1017.2
20260905095200 64 99 0.0 0.0 0.00 0.00 0.00 99 1017.2
20260905094655 64 132 0.0 0.0 0.00 0.00 0.00 99 1017.0
20260905094155 64 36 1.0 3.0 0.00 0.00 0.00 99 1016.7
20260905093655 64 354 0.0 0.0 0.00 0.00 0.00 99 1016.9
20260905093151 64 219 0.0 0.0 0.00 0.00 0.00 99 1016.9
20260905092646 64 294 0.0 0.0 0.00 0.00 0.00 99 1016.9
20260905092143 64 65 0.0 0.0 0.00 0.00 0.00 99 1016.8
20260905091641 64 82 0.0 0.0 0.00 0.00 0.00 99 1016.8
20260905091135 64 92 0.0 0.0 0.00 0.00 0.00 99 1016.5
20260905090630 63 228 0.0 0.0 0.00 0.00 0.00 99 1016.5
20260905090125 64 284 0.0 0.0 0.00 0.00 0.00 99 1016.7
20260905085624 64 305 0.0 0.0 0.00 0.00 0.00 99 1016.9
20260905085120 64 305 0.0 2.0 0.00 0.00 0.00 99 1017.0
20260905084619 64 314 1.0 2.0 0.00 0.00 0.00 99 1016.9
20260905084114 64 271 0.0 0.0 0.00 0.00 0.00 99 1017.0
20260905083608 64 235 0.0 0.0 0.00 0.00 0.00 99 1017.0
20260905083105 64 157 0.0 0.0 0.00 0.00 0.00 99 1016.9
20260905082600 64 267 0.0 3.0 0.00 0.00 0.00 99 1016.9
20260905082056 64 9 0.0 2.0 0.00 0.00 0.00 99 1016.9
20260905081555 64 283 0.0 0.0 0.00 0.00 0.00 99 1017.0
20260905081050 64 77 0.0 0.0 0.00 0.00 0.00 99 1017.2
20260905080550 64 53 0.0 0.0 0.00 0.00 0.00 99 1017.2
20260905080046 64 84 3.0 3.0 0.00 0.00 0.00 99 1016.9
20260905075544 64 124 0.0 0.0 0.00 0.00 0.00 99 1017.0
20260905075038 64 85 0.0 0.0 0.00 0.00 0.00 99 1017.1
20260905074532 64 72 0.0 0.0 0.00 0.00 0.00 99 1017.4
20260905074028 64 265 0.0 0.0 0.00 0.00 0.00 99 1017.3
20260905073523 64 55 1.0 2.0 0.00 0.00 0.00 99 1017.6
20260905073019 64 48 1.0 1.0 0.00 0.00 0.00 99 1017.5
20260905072518 65 330 0.0 1.0 0.00 0.00 0.00 99 1017.5
20260905072014 65 9 0.0 2.0 0.00 0.00 0.00 99 1017.7
20260905071511 65 67 2.0 3.0 0.00 0.00 0.00 99 1017.4
20260905071011 65 344 0.0 1.0 0.00 0.00 0.00 99 1017.6
20260905070506 65 330 0.0 0.0 0.00 0.00 0.00 99 1017.9
20260905070002 65 48 0.0 1.0 0.00 0.00 0.00 99 1018.1
20260905065459 65 354 0.0 2.0 0.00 0.00 0.00 99 1018.2
20260905064955 65 69 5.0 6.0 0.00 0.00 0.00 99 1018.0
20260905064449 65 51 0.0 0.0 0.00 0.00 0.00 99 1018.2
20260905063944 65 53 0.0 0.0 0.00 0.00 0.00 99 1018.1
20260905063433 65 313 0.0 0.0 0.00 0.00 0.00 99 1018.6
20260905062930 65 281 0.0 0.0 0.00 0.00 0.00 99 1018.3
20260905062429 65 109 0.0 0.0 0.00 0.00 0.00 99 1018.5
20260905061925 65 46 0.0 0.0 0.00 0.00 0.00 99 1018.7
20260905061424 65 42 1.0 3.0 0.00 0.00 0.00 99 1018.7
20260905060923 65 322 0.0 0.0 0.00 0.00 0.00 99 1018.6
20260905060420 64 53 2.0 3.0 0.00 0.00 0.00 99 1018.9
20260905055919 65 92 0.0 0.0 0.00 0.00 0.00 99 1018.9
20260905055415 65 107 0.0 0.0 0.00 0.00 0.00 99 1018.8
20260905054913 65 87 0.0 0.0 0.00 0.00 0.00 99 1019.2
20260905054411 64 42 0.0 0.0 0.00 0.00 0.00 99 1019.3
20260905053910 64 42 0.0 0.0 0.00 0.00 0.00 99 1019.3
20260905053405 64 72 0.0 0.0 0.00 0.00 0.00 99 1019.4
20260905052900 64 275 0.0 0.0 0.00 0.00 0.00 99 1019.6
20260905052359 64 335 0.0 0.0 0.00 0.00 0.00 99 1019.5
20260905051854 64 332 0.0 0.0 0.00 0.00 0.00 99 1019.6
20260905051350 64 58 0.0 0.0 0.00 0.00 0.00 99 1019.5
20260905050847 64 324 0.0 0.0 0.00 0.00 0.00 99 1019.7
20260905050343 64 74 0.0 0.0 0.00 0.00 0.00 99 1019.5
20260905045843 64 239 0.0 0.0 0.00 0.00 0.00 99 1019.9
20260905045338 65 239 0.0 0.0 0.00 0.00 0.00 99 1019.8
20260905044833 64 86 0.0 0.0 0.00 0.00 0.00 99 1020.1
20260905044328 64 263 0.0 0.0 0.00 0.00 0.00 99 1020.0
20260905043827 64 125 0.0 0.0 0.00 0.00 0.00 99 1020.3
20260905043321 64 125 0.0 0.0 0.00 0.00 0.00 99 1020.1
20260905042816 64 125 0.0 0.0 0.00 0.00 0.00 99 1019.9
20260905042310 65 180 0.0 0.0 0.00 0.00 0.00 99 1020.3
20260905041806 65 227 0.0 0.0 0.00 0.00 0.00 99 1020.3
20260905041302 65 88 0.0 0.0 0.00 0.00 0.00 99 1020.3
20260905040756 65 93 0.0 0.0 0.00 0.00 0.00 99 1020.4
20260905040255 65 91 0.0 0.0 0.00 0.28 0.28 99 1020.1
20260905035750 65 116 0.0 0.0 0.00 0.28 0.28 99 1020.4
20260905035246 65 118 0.0 0.0 0.00 0.28 0.28 99 1020.5
20260905034743 65 45 0.0 0.0 0.00 0.28 0.28 99 1020.4
20260905034243 65 45 0.0 0.0 0.00 0.28 0.28 99 1020.3
20260905033741 65 53 0.0 0.0 0.00 0.28 0.28 99 1020.3
20260905033237 66 9 0.0 0.0 0.00 0.28 0.28 99 1020.3
20260905032736 65 93 0.0 0.0 0.00 0.28 0.28 99 1020.1
20260905032232 65 35 0.0 0.0 0.00 0.28 0.28 99 1020.0
20260905031727 65 94 0.0 0.0 0.00 0.28 0.28 99 1020.1
20260905031223 66 244 0.0 0.0 0.00 0.28 0.28 99 1019.9
20260905030718 66 338 0.0 0.0 0.00 0.28 0.28 99 1019.8
20260905030213 66 336 0.0 0.0 0.00 0.28 0.28 99 1020.0
20260905025707 66 50 0.0 2.0 0.00 0.28 0.28 99 1019.8
20260905025203 66 39 0.0 0.0 0.00 0.28 0.28 99 1019.8